Location: Daouli
(14.8671°N, 3.2030°W)
Time: 23:59:08
(UTC+00:00)

Cosmos 2227 Rocket - Pass Details

Date: 29 October 2020
Orbit: 838 x 845 km, 71.0° (Epoch: 02 December)

Event Time Altitude Azimuth Distance (km) Brightness Sun altitude
Rises 18:42:36 0° 354° (N) 3,391 5.3 -14.4°
Reaches altitude 10° 18:45:10 10° 1° (N) 2,457 4.5 -15.0°
Maximum altitude 18:50:30 43° 72° (ENE) 1,166 2.5 -16.3°
Drops below altitude 10° 18:55:50 10° 143° (SE) 2,458 4.4 -17.5°
Sets 18:58:23 0° 149° (SSE) 3,393 5.1 -18.2°
